Flag for Hungary Weather past 2 weeks in Szeged, Hungary

Now
63 °F

Rain. Overcast.


Feels Like: 63 °F
Forecast: 57 / 73 °F
Wind: 6 mph from Northeast

Location: Szeged

Current Time: May 22, 2015 at 6:27:29 PM

Latest Report: May 22, 2015 at 5:00 PM


Visibility: 4 mi

Pressure: 29.97 "Hg

Humidity: 95%

Dew point: 61 °F

Location of SzegedLocation

Historic Weather in Szeged — Graph

°F

Szeged temperature yesterday

Maximum temperature yesterday: 71 °F (at 12:00 PM)
Minimum temperature yesterday: 56 °F (at 7:00 AM)
Average temperature yesterday: 62 °F

Past Weeks' High & Low Weather Summary

 TemperatureHumidityPressure
High87 °F (May 19, 6:00 PM)97% (May 22, 8:00 AM)30.34 "Hg (May 22, 8:00 AM)
Low46 °F (May 12, 6:00 AM)28% (May 19, 5:00 PM)29.72 "Hg (May 19, 7:00 PM)
Average64 °F64%30.02 "Hg
* Reported May 7 5:00 PM — May 22 5:00 PM, Szeged, Weather by CustomWeather, © 2015

Note: Actual official high and low records may vary slightly from our data, if they occured in-between our weather recording intervals... More about our weather records

Advertising

Szeged weather history for previous 24 hours

 ConditionsComfort  
Time TempWeatherWind HumidityBarometerVisibility
5:00 PM
Fri, May 22
63 °FRain. Overcast.6 mph95%29.97 "Hg4 mi
4:00 PM64 °FLight rain. Overcast.5 mph90%29.98 "Hg7 mi
3:00 PM65 °FLight rain. Overcast.6 mph90%29.97 "Hg10 mi
2:00 PM64 °FLight rain. Overcast.6 mph88%29.98 "Hg11 mi
1:00 PM63 °FOvercast.7 mph88%29.99 "Hg11 mi
12:00 PM63 °FLight rain. Overcast.6 mph90%30.00 "Hg11 mi
11:00 AM63 °FOvercast.6 mph89%30.01 "Hg11 mi
10:00 AM63 °FOvercast.3 mph92%30.00 "Hg9 mi
9:00 AM61 °FOvercast.3 mph95%30.01 "Hg4 mi
8:00 AM60 °FOvercast.3 mph97%30.00 "Hg3 mi
7:00 AM58 °FFog.3 mph96%30.00 "Hg3 mi
6:00 AM57 °FOvercast.3 mph96%30.00 "Hg4 mi
5:00 AM57 °FLight rain. Overcast.3 mph96%30.00 "Hg2 mi
4:00 AM57 °FLight rain. Overcast.2 mph96%30.01 "Hg3 mi
3:00 AM57 °FLight rain. Overcast.2 mph96%30.01 "Hg6 mi
2:00 AM57 °FLight rain. Overcast.2 mph96%30.02 "Hg4 mi
1:00 AM57 °FLight rain. Overcast.2 mph95%30.03 "Hg4 mi
12:00 AM57 °FLight rain. Overcast.2 mph95%30.03 "Hg4 mi
11:00 PM
Thu, May 21
57 °FLight rain. Low clouds.2 mph95%30.02 "Hg6 mi
10:00 PM57 °FLow clouds.5 mph95%30.02 "Hg6 mi
9:00 PM58 °FLight rain. Overcast.5 mph95%30.01 "Hg4 mi
8:00 PM59 °FLight rain. Overcast.5 mph94%30.01 "Hg5 mi
7:00 PM60 °FLight rain. Overcast.5 mph89%30.00 "Hg9 mi
6:00 PM62 °FLight rain. Overcast.5 mph85%29.98 "Hg16 mi
Weather by CustomWeather, © 2015

See weather overviewHow to use our weather pages